Tracking 28126 objects as of 2-Oct-2023
HD Live streaming from Space Station
objects crossing your sky now

SL-16 DEB

Track SL-16 DEB now!
10-day predictions


NORAD ID: 22574
Int'l Code: 1992-093HW
Perigee: 772.0 km
Apogee: 973.2 km
Inclination: 71.1 °
Period: 102.3 minutes
Semi major axis: 7243 km
RCS: 0.0082 m2 (small)
Launch date: December 25, 1992
Source: Commonwealth of Independent States (former USSR) (CIS)
Launch site: TYURATAM MISSILE AND SPACE COMPLEX (TTMTR)

Note: This is SATELLITE DEBRIS
Your satellite tracking list
Your tracking list is empty




NASA's NSSDC Master Catalog

Two Line Element Set (TLE):
1 22574U 92093HW  23264.66093311  .00002426  00000-0  13245-2 0  9990
2 22574  71.0889 137.6085 0138876 223.0780 167.3414 14.08233707560877
Source of the keplerian elements: AFSPC